Tracking 29892 objects as of 21-Nov-2024
HD Live streaming from Space Station
objects crossing your sky now

OPS 6577 (VELA 5)

Track OPS 6577 (VELA 5) now!
OPS 6577 (VELA 5) is classified as:


NORAD ID: 1458
Int'l Code: 1965-058A
Perigee: 53,970.5 km
Apogee: 170,068.4 km
Inclination: 23.9 °
Period: 6,756.7 minutes
Semi major axis: 118390 km
RCS: 0.003 m2 (small)
Launch date: July 20, 1965
Source: United States (US)
Launch site: AIR FORCE EASTERN TEST RANGE (AFETR)
Your satellite tracking list
Your tracking list is empty




NASA's NSSDC Master Catalog

Two Line Element Set (TLE):
1 01458U 65058A   24329.34532273 -.00000763  00000-0  00000-0 0  9998
2 01458  23.9487  21.7817 4903180 295.8161 357.3915  0.21312192 10843
Source of the keplerian elements: AFSPC